User: anonymous
Location: Oshawa
(43.9000°N, 78.8670°W)
Time: 22:40:02
(UTC-04:00)
Language:

Cosmos 1707 Rocket - Orbit

View from above orbital plane
View from above orbital plane
View from above satellite
View from above satellite

Ground track
Ground track

The orbit data is extracted from the following two-line orbital elements,

1 16327U 85113B   14112.51526655  .00000663  00000-0  78919-4 0  3235
2 16327 082.5338 088.6651 0019621 180.5062 317.3813 14.82755945531178
Epoch (UTC): 22 April 2014 12:21:59
Eccentricity: 0.0019621
inclination: 82.5338°
perigee height: 607 km
apogee height: 634 km
right ascension of ascending node: 88.6651°
argument of perigee: 180.5062°
revolutions per day: 14.82755945
mean anomaly at epoch: 317.3813°
orbit number at epoch: 53117

The dashed part of the orbit path shows where the satellite is in the earth's shadow,  

DLR